Location: French Creek State Gamelands
(40.1750°N, 75.7969°W)
Time: 00:31:07
(UTC-04:00)

ISS - All Passes

Search period start: 03 September 2015 00:00
Search period end: 13 September 2015 00:00
Orbit: 400 x 403 km, 51.6° (Epoch: 01 September)

Date Brightness Start Highest point End Pass type
(mag) Time Alt. Az. Time Alt. Az. Time Alt. Az.
03 Sep - 07:20:13 10° S 07:22:24 17° SE 07:24:39 10° E daylight
03 Sep - 08:55:24 10° WSW 08:58:34 50° NNW 09:01:46 10° NE daylight
03 Sep - 10:33:42 10° NW 10:35:36 14° NNW 10:37:28 10° NNE daylight
03 Sep - 12:11:48 10° NNW 12:13:05 12° N 12:14:22 10° NNE daylight
03 Sep - 13:47:30 10° NW 13:50:20 27° NNE 13:53:11 10° E daylight
03 Sep - 15:23:46 10° WNW 15:26:49 38° SW 15:29:51 10° SSE daylight
04 Sep - 08:02:01 10° SW 08:05:16 84° SE 08:08:32 10° NE daylight
04 Sep - 09:39:38 10° WNW 09:42:02 18° NNW 09:44:25 10° NNE daylight
04 Sep - 11:18:24 10° NNW 11:19:27 11° N 11:20:29 10° NNE daylight
04 Sep - 12:54:27 10° NNW 12:56:51 19° NNE 12:59:16 10° ENE daylight
04 Sep - 14:30:21 10° NW 14:33:36 81° SW 14:36:51 10° SE daylight
05 Sep - 07:08:59 10° SSW 07:12:02 40° SE 07:15:08 10° ENE daylight
05 Sep - 08:45:42 10° W 08:48:32 26° NNW 08:51:22 10° NE daylight
05 Sep - 10:24:32 10° NNW 10:25:49 12° N 10:27:04 10° NNE daylight
05 Sep - 12:01:25 10° NNW 12:03:17 14° NNE 12:05:12 10° NE daylight
05 Sep - 13:37:07 10° NW 13:40:18 51° NNE 13:43:29 10° ESE daylight
05 Sep - 15:14:17 10° W 15:16:28 16° SW 15:18:34 10° S daylight
06 Sep - 06:16:27 10° S 06:18:53 20° SE 06:21:23 10° E daylight
06 Sep - 07:52:00 10° WSW 07:55:08 43° NNW 07:58:16 10° NE daylight
06 Sep - 09:30:26 10° NW 09:32:12 14° NNW 09:33:56 10° NNE daylight
06 Sep - 11:08:19 10° NNW 11:09:42 12° N 11:11:05 10° NNE daylight
06 Sep - 12:43:59 10° NW 12:46:55 30° NNE 12:49:50 10° E daylight
06 Sep - 14:20:22 10° WNW 14:23:20 32° SW 14:26:16 10° SSE daylight
07 Sep - 06:58:32 10° SW 07:01:48 83° NW 07:05:04 10° NE daylight
07 Sep - 08:36:21 10° WNW 08:38:38 17° NNW 08:40:54 10° NNE daylight
07 Sep - 10:15:00 10° NNW 10:16:04 11° N 10:17:08 10° NNE daylight
07 Sep - 11:50:55 10° NNW 11:53:26 20° NNE 11:55:58 10° ENE daylight
07 Sep - 13:26:54 10° WNW 13:30:08 68° SW 13:33:21 10° SE daylight
08 Sep - 06:05:25 10° SSW 06:08:33 47° SE 06:11:43 10° ENE visible
08 Sep - 07:42:23 10° W 07:45:07 24° NNW 07:47:51 10° NNE daylight
08 Sep - 09:21:15 10° NNW 09:22:26 11° N 09:23:36 10° NNE daylight
08 Sep - 10:57:54 10° NNW 10:59:54 15° NNE 11:01:56 10° NE daylight
08 Sep - 12:33:37 10° NW 12:36:51 60° NE 12:40:04 10° ESE daylight
08 Sep - 14:11:08 10° W 14:12:58 14° SW 14:14:42 10° SSW daylight
09 Sep - 05:12:45 10° S 05:15:23 23° SE 05:18:05 10° ENE visible
09 Sep - 06:48:36 10° W 06:51:41 38° NNW 06:54:47 10° NE daylight
09 Sep - 08:27:10 10° NW 08:28:49 13° N 08:30:26 10° NNE daylight
09 Sep - 10:04:49 10° NNW 10:06:18 13° N 10:07:50 10° NE daylight
09 Sep - 11:40:29 10° NW 11:43:29 33° NNE 11:46:29 10° E daylight
09 Sep - 13:17:00 10° WNW 13:19:50 27° SW 13:22:38 10° SSE daylight
10 Sep - 04:21:01 10° SSE 04:22:17 12° SE 04:23:40 10° ESE visible
10 Sep - 05:55:06 10° WSW 05:58:20 70° NW 06:01:36 10° NE visible
10 Sep - 07:33:04 10° WNW 07:35:14 16° NNW 07:37:23 10° NNE daylight
10 Sep - 09:11:35 10° NNW 09:12:41 11° N 09:13:48 10° NNE daylight
10 Sep - 10:47:24 10° NNW 10:50:02 22° NNE 10:52:40 10° ENE daylight
10 Sep - 12:23:27 10° WNW 12:26:40 57° SW 12:29:51 10° SE daylight
11 Sep - 05:01:53 10° SW 05:05:05 57° SE 05:08:18 10° ENE visible
11 Sep - 06:39:04 10° WNW 06:41:43 22° NNW 06:44:21 10° NNE daylight
11 Sep - 08:17:55 10° NNW 08:19:03 11° N 08:20:10 10° NNE daylight
11 Sep - 09:54:22 10° NNW 09:56:30 16° NNE 09:58:40 10° ENE daylight
11 Sep - 11:30:09 10° NW 11:33:24 70° NE 11:36:38 10° ESE daylight
11 Sep - 13:08:07 10° WSW 13:09:28 12° SW 13:10:40 10° SSW daylight
12 Sep - 04:09:05 10° SSW 04:11:54 27° SE 04:14:45 10° ENE visible
12 Sep - 05:45:15 10° W 05:48:15 33° NNW 05:51:16 10° NE visible
12 Sep - 07:23:55 10° NW 07:25:26 13° N 07:26:56 10° NNE daylight
12 Sep - 09:01:18 10° NNW 09:02:56 13° N 09:04:34 10° NE daylight
12 Sep - 10:36:59 10° NW 10:40:04 38° NNE 10:43:07 10° E daylight
12 Sep - 12:13:40 10° WNW 12:16:21 23° SW 12:18:59 10° S daylight
